QPF
0.00 0.00 0.00 0.00 0.00 0.00 0.00 0.00 0.00 0.00 0.00 0.00 0.00 0.00 0.00 0.00 0.00 0.00 0.00 0.00 0.00 0.00 0.00 0.00 0.00 0.00 0.00 0.00 0.00 0.00 0.00 0.00 0.00 0.00 0.00 0.00 0.00 0.00 0.00 0.00 0.00 0.00 0.00 0.00
0.00 0.00 0.00 0.00 0.00 0.00 0.00 0.00 0.00 0.00 0.00 0.00 0.00 0.00 0.00 0.00 0.00 0.00 0.00 0.00 0.00 0.00 0.00 0.00 0.00 0.00 0.00 0.00 0.00 0.00 0.00 0.00 0.00 0.00 0.00 0.00 0.00 0.00 0.00 0.00 0.00 0.00 0.00 0.00
0.00 0.00 0.00 0.00 0.00 0.00 0.00 0.00 0.00 0.00 0.00 0.00 0.00 0.00 0.00 0.00 0.00 0.00 0.00 0.00 0.00 0.00 0.00 0.00 0.00 0.00 0.00 0.00 0.00 0.00 0.00 0.00 0.00 0.00 0.00 0.00 0.00 0.00 0.00 0.00 0.00 0.00 0.00 0.00
0.00 0.00 0.00 0.00 0.00 0.00 0.00 0.00 0.00 0.00 0.00 0.00 0.00 0.00 0.00 0.00 0.00 0.00 0.00 0.00 0.00 0.00 0.00 0.00 0.00 0.00 0.00 0.00 0.00 0.00 0.00 0.00 0.00 0.00 0.00 0.00 0.00 0.00 0.00 0.00 0.00 0.00 0.00 0.00
0.00 0.00 0.00 0.00 0.00 0.00 0.00 0.00 0.00 0.00 0.00 0.00 0.00 0.00 0.00 0.00 0.00 0.00 0.00 0.00 0.00 0.00 0.00 0.00 0.00 0.00 0.00 0.00 0.00 0.00 0.00 0.00 0.00 0.00 0.00 0.00 0.00 0.00 0.00 0.00 0.00 0.00 0.00 0.00
0.00 0.00 0.00 0.00 0.00 0.00 0.00 0.00 0.00 0.00 0.00 0.00 0.00 0.00 0.00 0.00 0.00 0.00 0.00 0.00 0.00 0.00 0.00 0.00 0.00 0.00 0.00 0.00 0.00 0.00 0.00 0.00 0.00 0.00 0.00 0.00 0.00 0.00 0.00 0.00 0.00 0.01 0.01 0.01
0.00 0.00 0.00 0.00 0.00 0.00 0.00 0.00 0.00 0.00 0.00 0.00 0.00 0.00 0.00 0.00 0.00 0.00 0.00 0.00 0.00 0.00 0.00 0.00 0.00 0.00 0.00 0.00 0.00 0.00 0.00 0.00 0.00 0.00 0.00 0.00 0.00 0.00 0.00 0.00 0.00 0.00 0.00 0.00
0.00 0.00 0.00 0.00 0.00 0.00 0.00 0.00 0.00 0.00 0.00 0.00 0.00 0.00 0.00 0.00 0.00 0.00 0.00 0.00 0.00 0.00 0.00 0.00 0.00 0.00 0.00 0.00 0.00 0.00 0.00 0.00 0.00 0.00 0.00 0.00 0.00 0.00 0.00 0.00 0.00 0.00 0.00 0.00
0.00 0.00 0.00 0.00 0.00 0.00 0.00 0.00 0.00 0.00 0.00 0.00 0.00 0.00 0.00 0.00 0.00 0.00 0.00 0.00 0.00 0.00 0.00 0.00 0.00 0.00 0.00 0.00 0.00 0.00 0.00 0.00 0.00 0.00 0.00 0.00 0.00 0.00 0.00 0.00 0.00 0.00 0.00 0.00
0.00 0.00 0.00 0.00 0.00 0.00 0.00 0.00 0.00 0.00 0.00 0.00 0.00 0.00 0.00 0.00 0.00 0.00 0.00 0.00 0.00 0.00 0.00 0.00 0.00 0.00 0.00 0.00 0.00 0.00 0.00 0.00 0.00 0.00 0.00 0.00 0.00 0.00 0.00 0.00 0.00 0.00 0.00 0.00
0.00 0.00 0.00 0.00 0.00 0.00 0.00 0.00 0.00 0.00 0.00 0.00 0.00 0.00 0.00 0.00 0.00 0.00 0.00 0.00 0.00 0.00 0.00 0.00 0.00 0.00 0.00 0.00 0.00 0.00 0.00 0.00 0.00 0.00 0.00 0.00 0.00 0.00 0.00 0.00 0.00 0.00 0.00 0.00
0.00 0.00 0.00 0.00 0.00 0.00 0.00 0.00 0.00 0.00 0.00 0.00 0.00 0.00 0.00 0.00 0.00 0.00 0.00 0.00 0.00 0.00 0.00 0.00 0.00 0.00 0.00 0.00 0.00 0.00 0.00 0.00 0.00 0.00 0.00 0.00 0.00 0.00 0.00 0.00 0.00 0.00 0.00 0.00
0.00 0.00 0.00 0.00 0.00 0.00 0.00 0.00 0.00 0.00 0.00 0.00 0.00 0.00 0.00 0.00 0.00 0.00 0.00 0.00 0.00 0.00 0.00 0.00 0.00 0.00 0.00 0.00 0.00 0.00 0.00 0.00 0.00 0.00 0.00 0.00 0.00 0.00 0.00 0.00 0.00 0.00 0.00 0.00
0.00 0.00 0.00 0.00 0.00 0.00 0.00 0.00 0.00 0.00 0.00 0.00 0.00 0.00 0.00 0.00 0.00 0.00 0.00 0.00 0.00 0.00 0.00 0.00 0.00 0.00 0.00 0.00 0.00 0.00 0.00 0.00 0.00 0.00 0.00 0.00 0.00 0.00 0.00 0.00 0.00 0.00 0.00 0.00
0.00 0.00 0.00 0.00 0.00 0.00 0.00 0.00 0.00 0.00 0.00 0.00 0.00 0.00 0.00 0.00 0.00 0.00 0.00 0.00 0.00 0.00 0.00 0.00 0.00 0.00 0.00 0.00 0.00 0.00 0.00 0.00 0.00 0.00 0.00 0.00 0.00 0.00 0.00 0.00 0.00 0.00 0.00 0.00
0.00 0.00 0.00 0.00 0.00 0.00 0.00 0.00 0.00 0.00 0.00 0.00 0.00 0.00 0.00 0.00 0.00 0.00 0.00 0.00 0.00 0.00 0.00 0.00 0.00 0.00 0.00 0.00 0.00 0.00 0.00 0.00 0.00 0.00 0.00 0.00 0.00 0.00 0.00 0.00 0.00 0.00 0.00 0.00
0.00 0.00 0.00 0.00 0.00 0.00 0.00 0.00 0.00 0.00 0.00 0.00 0.00 0.00 0.00 0.00 0.00 0.00 0.00 0.00 0.00 0.00 0.00 0.00 0.00 0.00 0.00 0.00 0.00 0.00 0.00 0.00 0.00 0.00 0.00 0.00 0.00 0.00 0.00 0.00 0.00 0.00 0.00 0.00
0.00 0.00 0.00 0.00 0.00 0.00 0.00 0.00 0.00 0.00 0.00 0.00 0.00 0.00 0.00 0.00 0.00 0.00 0.00 0.00 0.00 0.00 0.00 0.00 0.00 0.00 0.00 0.00 0.00 0.00 0.00 0.00 0.00 0.00 0.00 0.00 0.00 0.00 0.00 0.00 0.00 0.00 0.00 0.00
0.00 0.00 0.00 0.00 0.00 0.00 0.00 0.00 0.00 0.00 0.00 0.00 0.00 0.00 0.00 0.00 0.00 0.00 0.00 0.00 0.00 0.00 0.00 0.00 0.00 0.00 0.00 0.00 0.00 0.00 0.00 0.00 0.00 0.00 0.00 0.00 0.00 0.00 0.00 0.00 0.00 0.00 0.00 0.00
0.00 0.00 0.00 0.00 0.00 0.00 0.00 0.00 0.00 0.00 0.00 0.00 0.00 0.00 0.00 0.00 0.00 0.00 0.00 0.00 0.00 0.00 0.00 0.00 0.00 0.00 0.00 0.00 0.00 0.00 0.00 0.00 0.00 0.00 0.00 0.00 0.00 0.00 0.00 0.00 0.00 0.00 0.00 0.00
0.00 0.00 0.00 0.00 0.00 0.00 0.00 0.00 0.00 0.00 0.00 0.00 0.00 0.00 0.00 0.00 0.00 0.00 0.00 0.00 0.00 0.00 0.00 0.00 0.00 0.00 0.00 0.00 0.00 0.00 0.00 0.00 0.00 0.00 0.00 0.00 0.00 0.00 0.00 0.00 0.00 0.00 0.00 0.00
0.00 0.00 0.00 0.00 0.00 0.00 0.00 0.00 0.00 0.00 0.00 0.00 0.00 0.00 0.00 0.00 0.00 0.00 0.00 0.00 0.00 0.00 0.00 0.00 0.00 0.00 0.00 0.00 0.00 0.00 0.00 0.00 0.00 0.00 0.00 0.00 0.00 0.00 0.00 0.00 0.00 0.00 0.00 0.00
0.00 0.00 0.00 0.00 0.00 0.00 0.00 0.00 0.00 0.00 0.00 0.00 0.00 0.00 0.00 0.00 0.00 0.00 0.00 0.00 0.00 0.00 0.00 0.00 0.00 0.00 0.00 0.00 0.00 0.00 0.00 0.00 0.00 0.00 0.00 0.00 0.00 0.00 0.00 0.00 0.00 0.00 0.00 0.00
0.00 0.00 0.00 0.00 0.00 0.00 0.00 0.00 0.00 0.00 0.00 0.00 0.00 0.00 0.00 0.00 0.00 0.00 0.00 0.00 0.00 0.00 0.00 0.00 0.00 0.00 0.00 0.00 0.00 0.00 0.00 0.00 0.00 0.00 0.00 0.00 0.00 0.00 0.00 0.00 0.00 0.00 0.00 0.00
0.00 0.00 0.00 0.00 0.00 0.00 0.00 0.00 0.00 0.00 0.00 0.00 0.00 0.00 0.00 0.00 0.00 0.00 0.00 0.00 0.00 0.00 0.00 0.00 0.00 0.00 0.00 0.00 0.00 0.00 0.00 0.00 0.00 0.00 0.00 0.00 0.00 0.00 0.00 0.00 0.00 0.00 0.00 0.00
0.00 0.00 0.00 0.00 0.00 0.00 0.00 0.00 0.00 0.00 0.00 0.00 0.00 0.00 0.00 0.00 0.00 0.00 0.00 0.00 0.00 0.00 0.00 0.00 0.00 0.00 0.00 0.00 0.00 0.00 0.00 0.00 0.00 0.00 0.00 0.00 0.00 0.00 0.00 0.00 0.00 0.00 0.00 0.00
MSLP
1011.53 1011.42 1010.87 1010.84 1010.52 1010.05 1010.02 1010.89 1011.65 1012.52 1013.81 1013.88 1013.34 1012.75 1012.36 1012.50 1013.12 1013.14 1013.11 1013.20 1013.60 1013.95 1014.49 1015.26 1015.61 1015.91 1016.09 1016.04 1016.08 1016.46 1016.84 1017.44 1018.31 1019.25 1019.83 1020.28 1020.58 1020.99 1021.27 1021.39 1021.55 1021.78 1022.04 1022.03
1011.98 1010.84 1010.91 1011.06 1011.01 1010.89 1010.67 1011.33 1011.84 1013.54 1014.07 1014.20 1013.53 1012.71 1012.35 1012.57 1013.12 1013.44 1013.76 1014.00 1014.26 1014.53 1015.06 1015.71 1015.97 1016.29 1016.48 1016.35 1016.33 1016.45 1016.66 1017.04 1017.62 1018.68 1019.43 1019.89 1020.23 1020.57 1020.90 1021.11 1021.37 1021.64 1021.82 1021.88
1011.15 1011.07 1011.42 1011.56 1011.93 1011.54 1011.56 1011.42 1011.78 1012.61 1014.00 1014.31 1013.79 1012.38 1011.83 1012.94 1013.59 1014.19 1014.43 1014.81 1015.05 1015.24 1015.50 1016.02 1016.37 1016.58 1016.84 1016.85 1016.68 1016.71 1016.80 1016.94 1017.33 1018.14 1019.27 1019.79 1020.25 1020.39 1020.60 1020.91 1021.23 1021.40 1021.67 1021.81
1011.67 1012.19 1011.91 1012.15 1011.87 1011.84 1012.25 1012.46 1012.43 1013.06 1013.60 1013.61 1013.67 1011.98 1011.35 1012.01 1013.24 1014.04 1014.51 1014.81 1015.16 1015.75 1016.17 1016.49 1016.73 1017.06 1017.36 1017.46 1017.32 1017.11 1017.04 1017.17 1017.27 1017.59 1018.13 1019.11 1019.71 1020.03 1020.20 1020.47 1020.74 1020.99 1021.28 1021.47
1011.85 1012.21 1012.38 1012.37 1011.92 1012.45 1012.95 1013.20 1013.15 1013.40 1013.69 1014.14 1013.75 1013.48 1011.32 1012.29 1012.96 1013.84 1014.51 1015.15 1015.72 1016.11 1016.53 1016.98 1017.31 1017.54 1017.94 1017.88 1017.59 1017.34 1017.53 1017.54 1017.64 1017.93 1018.25 1018.74 1019.61 1019.90 1020.05 1020.28 1020.61 1020.87 1020.99 1021.07
1012.47 1012.98 1012.60 1012.58 1013.03 1013.04 1013.67 1013.84 1014.21 1014.27 1014.44 1014.32 1013.27 1013.56 1011.48 1011.87 1012.25 1013.55 1014.84 1015.23 1016.34 1016.44 1017.08 1017.48 1017.80 1017.89 1018.38 1018.45 1018.36 1018.06 1017.96 1018.04 1018.27 1018.38 1018.69 1018.79 1019.47 1019.95 1020.26 1020.38 1020.55 1020.75 1021.00 1021.11
1012.31 1013.03 1013.45 1013.37 1013.68 1014.06 1013.39 1013.43 1014.10 1014.71 1015.10 1014.43 1014.44 1014.31 1011.98 1012.37 1012.88 1013.58 1014.64 1015.49 1016.43 1016.77 1017.33 1017.86 1018.07 1018.32 1018.75 1019.08 1018.95 1018.89 1018.94 1018.88 1019.26 1019.51 1019.69 1019.96 1020.23 1020.48 1020.71 1020.96 1021.08 1021.15 1021.15 1021.18
1011.34 1013.06 1013.17 1013.14 1012.68 1012.82 1013.07 1012.87 1012.87 1013.94 1014.94 1014.79 1015.63 1013.88 1012.41 1012.88 1013.71 1013.96 1014.95 1015.92 1016.52 1016.99 1017.85 1018.29 1018.68 1018.98 1019.22 1019.61 1019.58 1019.55 1019.61 1019.49 1019.82 1020.03 1020.34 1020.60 1020.75 1021.01 1021.33 1021.54 1021.59 1021.57 1021.73 1021.84
1010.24 1011.94 1013.10 1013.31 1013.21 1012.84 1013.50 1013.19 1013.30 1014.35 1015.82 1015.07 1014.00 1013.01 1013.26 1013.67 1014.10 1014.38 1015.26 1016.29 1016.77 1017.22 1018.04 1018.85 1019.20 1019.39 1019.70 1020.03 1020.22 1020.27 1020.44 1020.41 1020.71 1020.88 1021.04 1021.38 1021.57 1021.80 1022.05 1022.12 1022.28 1022.39 1022.31 1022.34
1009.74 1011.72 1013.73 1014.11 1013.74 1013.60 1012.90 1012.72 1013.58 1013.58 1014.33 1013.97 1013.09 1012.48 1011.73 1013.05 1013.50 1014.31 1015.07 1015.93 1016.74 1017.50 1018.26 1018.99 1019.50 1020.00 1020.42 1020.74 1020.71 1020.97 1021.20 1021.23 1021.55 1021.69 1021.83 1022.13 1022.43 1022.55 1022.87 1023.03 1023.05 1023.06 1023.06 1023.02
1010.07 1010.93 1014.20 1014.19 1013.42 1012.65 1013.42 1012.75 1012.59 1012.39 1012.92 1012.73 1012.39 1011.07 1010.30 1010.79 1011.97 1013.08 1014.32 1015.38 1016.48 1017.36 1018.29 1018.96 1019.79 1020.40 1020.74 1021.06 1021.26 1021.51 1021.79 1021.93 1022.32 1022.55 1022.62 1022.77 1023.11 1023.14 1023.31 1023.49 1023.61 1023.78 1023.54 1023.50
1010.72 1011.56 1013.10 1013.11 1013.55 1013.39 1012.55 1011.94 1012.08 1012.02 1012.22 1012.51 1012.25 1010.71 1010.77 1010.48 1011.53 1012.90 1013.97 1015.15 1016.55 1017.52 1018.22 1019.10 1020.01 1020.54 1020.94 1021.39 1021.53 1021.93 1022.07 1022.47 1022.91 1023.18 1023.19 1023.38 1023.76 1023.92 1023.85 1024.06 1024.25 1024.23 1024.14 1024.00
1010.37 1011.59 1012.93 1013.43 1013.62 1013.49 1012.53 1011.81 1011.26 1011.41 1012.14 1011.95 1012.11 1010.74 1011.15 1010.89 1011.42 1012.68 1013.73 1015.19 1016.45 1017.55 1018.42 1019.19 1019.75 1020.46 1021.11 1021.65 1022.04 1022.37 1022.64 1023.20 1023.59 1023.67 1023.68 1023.93 1024.30 1024.40 1024.47 1024.62 1024.72 1024.53 1024.35 1024.06
1010.31 1010.78 1010.87 1010.95 1010.19 1010.79 1011.86 1011.29 1011.46 1011.26 1011.46 1010.73 1010.52 1009.89 1010.90 1011.03 1011.55 1012.63 1013.84 1015.07 1016.32 1017.43 1018.36 1019.12 1019.67 1020.52 1021.24 1021.68 1022.05 1022.55 1023.08 1023.69 1023.91 1023.98 1024.15 1024.50 1024.85 1024.95 1024.92 1024.88 1025.01 1024.87 1024.69 1024.53
1010.71 1010.59 1011.04 1010.48 1010.41 1010.26 1010.19 1010.81 1011.21 1011.07 1009.78 1009.95 1008.67 1009.06 1009.22 1010.48 1011.24 1011.81 1013.01 1014.88 1015.98 1017.07 1018.16 1018.82 1019.58 1020.44 1021.22 1021.79 1022.39 1022.98 1023.42 1024.04 1024.11 1024.29 1024.60 1024.95 1025.46 1025.62 1025.55 1025.56 1025.60 1025.49 1025.34 1025.01
1011.16 1011.11 1011.17 1011.36 1011.21 1011.33 1010.91 1010.66 1010.42 1010.09 1009.37 1009.35 1008.32 1008.08 1008.28 1009.49 1011.08 1012.22 1013.10 1014.34 1015.42 1016.50 1017.62 1018.55 1019.49 1020.42 1021.29 1022.00 1022.61 1023.21 1023.83 1024.32 1024.55 1024.95 1025.66 1026.06 1026.28 1026.32 1026.28 1026.21 1026.08 1025.75 1025.52 1025.21
1011.44 1011.67 1012.05 1012.34 1012.47 1012.30 1011.65 1009.06 1009.53 1009.29 1008.97 1008.16 1007.77 1006.62 1008.74 1009.71 1010.45 1011.28 1012.54 1013.46 1014.73 1016.05 1017.27 1018.52 1019.60 1020.54 1021.42 1022.21 1022.95 1023.49 1024.10 1024.68 1025.20 1025.89 1026.29 1026.50 1026.64 1026.50 1026.51 1026.43 1026.17 1025.97 1025.67 1025.26
1011.65 1011.93 1012.48 1012.79 1013.19 1012.03 1008.91 1008.84 1008.33 1008.43 1007.91 1007.90 1007.48 1007.59 1008.29 1008.95 1009.94 1010.75 1011.80 1012.95 1014.37 1015.78 1017.19 1018.51 1019.59 1020.65 1021.64 1022.51 1023.26 1023.88 1024.39 1025.20 1025.73 1026.20 1026.49 1026.69 1026.66 1026.75 1026.70 1026.63 1026.36 1026.06 1025.73 1025.40
1011.55 1012.06 1012.93 1012.97 1012.75 1010.68 1008.96 1009.47 1009.17 1008.75 1007.30 1007.46 1006.98 1007.78 1008.61 1009.42 1010.56 1011.43 1012.39 1013.69 1014.72 1016.02 1017.46 1018.55 1019.62 1020.82 1021.87 1022.71 1023.36 1024.22 1025.20 1025.44 1025.85 1026.28 1026.56 1026.72 1026.91 1026.92 1026.83 1026.70 1026.34 1026.09 1025.77 1025.34
1012.33 1012.36 1012.51 1012.79 1012.01 1010.68 1008.45 1009.06 1009.37 1009.42 1007.49 1007.33 1007.68 1008.22 1009.05 1010.11 1010.96 1010.67 1012.42 1013.63 1015.02 1016.38 1017.72 1019.00 1020.26 1021.30 1022.11 1023.15 1024.11 1024.67 1025.24 1025.57 1026.07 1026.43 1026.79 1026.96 1027.04 1026.98 1026.83 1026.58 1026.25 1025.79 1025.45 1024.90
1012.14 1012.15 1011.76 1012.03 1011.64 1010.19 1009.44 1009.77 1009.93 1010.13 1008.46 1007.95 1007.67 1007.96 1009.05 1009.61 1009.66 1010.35 1012.54 1014.15 1015.15 1016.45 1017.95 1019.28 1020.51 1021.67 1022.93 1023.75 1024.39 1024.99 1025.44 1025.93 1026.48 1026.74 1026.89 1027.13 1027.07 1026.93 1026.67 1026.30 1026.01 1025.61 1025.13 1024.58
1010.64 1010.91 1011.04 1011.29 1011.17 1010.27 1009.80 1010.50 1010.22 1009.43 1009.27 1009.30 1009.27 1009.34 1010.09 1010.85 1011.52 1012.20 1013.11 1014.53 1015.87 1016.90 1018.52 1019.63 1021.19 1022.47 1023.41 1024.14 1024.60 1025.09 1025.51 1026.17 1026.54 1026.79 1026.94 1027.06 1026.78 1026.65 1026.59 1026.23 1025.84 1025.37 1024.80 1024.14
1010.48 1009.79 1010.06 1010.23 1009.64 1009.26 1009.59 1009.75 1009.71 1009.78 1010.09 1010.29 1010.27 1010.50 1010.97 1011.78 1012.55 1013.29 1014.33 1015.46 1016.69 1017.98 1019.32 1020.59 1021.65 1022.97 1024.00 1024.48 1024.68 1025.19 1025.89 1026.42 1026.68 1026.95 1027.05 1026.89 1026.78 1026.72 1026.54 1026.15 1025.54 1025.01 1024.37 1023.87
1010.43 1010.47 1010.13 1010.22 1009.26 1009.52 1009.96 1010.29 1010.54 1010.65 1010.68 1010.74 1011.00 1011.24 1011.87 1012.59 1013.61 1014.60 1015.53 1016.74 1018.10 1019.32 1020.42 1021.48 1022.33 1023.26 1024.12 1024.78 1025.27 1025.79 1026.35 1026.79 1027.14 1027.10 1027.04 1026.95 1026.81 1026.49 1026.19 1025.74 1025.25 1024.75 1024.22 1023.66
1010.21 1010.38 1010.15 1010.02 1010.03 1010.21 1010.10 1010.27 1010.65 1011.19 1011.41 1011.70 1011.85 1012.18 1012.48 1013.24 1014.59 1015.29 1016.58 1017.81 1018.99 1020.13 1021.11 1021.72 1022.48 1023.49 1024.45 1025.16 1025.81 1026.49 1026.90 1027.09 1027.21 1027.26 1027.03 1026.76 1026.51 1026.18 1025.79 1025.33 1024.87 1024.33 1023.87 1023.65
1009.78 1009.44 1009.55 1009.09 1009.15 1009.38 1009.68 1009.77 1010.57 1011.34 1011.95 1012.44 1012.48 1013.03 1013.62 1013.97 1014.87 1016.09 1017.43 1018.48 1019.53 1020.57 1021.43 1022.30 1023.17 1023.98 1024.95 1025.83 1026.37 1026.78 1027.24 1027.41 1027.61 1027.48 1027.16 1026.90 1026.79 1026.24 1025.65 1025.11 1024.14 1023.79 1023.11 1022.75
Thickness
5639 5636 5639 5654 5669 5680 5683 5675 5672 5679 5669 5673 5680 5687 5699 5708 5701 5703 5710 5715 5714 5715 5718 5714 5715 5715 5715 5719 5720 5718 5715 5712 5706 5697 5692 5688 5685 5682 5679 5677 5675 5673 5669 5667
5623 5635 5653 5660 5660 5663 5672 5665 5667 5655 5657 5661 5673 5681 5695 5700 5698 5700 5700 5702 5704 5707 5707 5705 5706 5706 5706 5710 5712 5713 5712 5711 5707 5698 5692 5689 5685 5682 5677 5674 5670 5668 5667 5665
5628 5640 5640 5642 5640 5648 5657 5662 5663 5666 5652 5656 5662 5677 5691 5687 5687 5687 5689 5691 5694 5697 5699 5699 5699 5700 5699 5701 5705 5705 5705 5705 5704 5697 5687 5683 5679 5677 5675 5672 5667 5664 5661 5659
5622 5620 5631 5634 5639 5650 5637 5652 5657 5648 5653 5654 5658 5669 5687 5692 5684 5682 5684 5690 5692 5690 5690 5691 5693 5692 5691 5692 5695 5697 5698 5697 5698 5697 5692 5682 5677 5673 5672 5669 5666 5661 5657 5654
5615 5614 5619 5625 5640 5642 5638 5641 5645 5646 5646 5642 5648 5647 5690 5679 5678 5680 5682 5682 5682 5684 5684 5682 5682 5682 5681 5683 5687 5690 5688 5689 5689 5686 5684 5679 5670 5669 5668 5665 5660 5656 5652 5649
5600 5607 5622 5628 5625 5631 5626 5628 5627 5632 5632 5622 5654 5646 5679 5677 5686 5680 5674 5677 5671 5675 5673 5673 5673 5674 5671 5672 5674 5677 5678 5678 5676 5676 5673 5672 5665 5661 5657 5654 5652 5649 5645 5641
5594 5597 5605 5613 5607 5612 5625 5626 5605 5602 5601 5616 5618 5624 5671 5672 5678 5677 5670 5668 5666 5667 5667 5664 5664 5664 5661 5660 5662 5663 5662 5662 5660 5657 5656 5653 5651 5648 5645 5642 5639 5637 5635 5633
5596 5588 5600 5612 5621 5618 5620 5629 5617 5596 5603 5623 5591 5620 5660 5667 5664 5672 5665 5660 5659 5658 5654 5653 5652 5651 5650 5649 5650 5651 5650 5651 5648 5646 5642 5640 5639 5636 5631 5628 5626 5624 5620 5617
5604 5599 5597 5607 5612 5622 5608 5608 5624 5594 5559 5604 5623 5642 5646 5645 5650 5657 5653 5648 5648 5647 5644 5640 5640 5641 5639 5637 5636 5636 5634 5634 5632 5630 5628 5625 5623 5620 5616 5614 5611 5608 5606 5603
5610 5580 5580 5585 5598 5600 5613 5624 5599 5607 5582 5592 5618 5631 5660 5638 5645 5646 5645 5642 5640 5637 5634 5631 5630 5627 5625 5623 5623 5621 5619 5620 5617 5615 5613 5610 5606 5604 5600 5597 5594 5592 5589 5586
5601 5597 5564 5578 5590 5605 5594 5599 5607 5617 5610 5606 5612 5636 5671 5661 5654 5648 5644 5642 5635 5630 5626 5623 5619 5615 5613 5612 5611 5609 5606 5605 5601 5598 5597 5595 5591 5589 5586 5583 5580 5575 5574 5571
5584 5580 5566 5582 5576 5581 5600 5610 5608 5600 5594 5604 5600 5636 5643 5661 5653 5646 5641 5636 5627 5621 5618 5613 5607 5604 5602 5599 5599 5596 5593 5589 5585 5582 5581 5579 5574 5571 5570 5566 5562 5559 5557 5554
5576 5557 5547 5553 5567 5569 5582 5600 5614 5619 5594 5579 5594 5631 5627 5643 5647 5641 5634 5624 5616 5610 5606 5601 5599 5596 5591 5586 5582 5579 5577 5572 5568 5567 5566 5562 5558 5555 5553 5549 5546 5543 5541 5540
5572 5559 5573 5577 5605 5605 5580 5594 5596 5603 5584 5605 5609 5641 5616 5627 5631 5628 5620 5611 5604 5599 5594 5592 5589 5584 5578 5574 5572 5568 5563 5556 5554 5552 5549 5545 5542 5539 5537 5535 5531 5529 5527 5525
5558 5553 5567 5588 5595 5593 5595 5588 5586 5584 5609 5599 5629 5623 5634 5621 5619 5620 5614 5603 5597 5593 5585 5583 5578 5570 5564 5559 5555 5552 5547 5540 5539 5536 5533 5529 5523 5519 5518 5515 5513 5512 5510 5509
5543 5543 5563 5548 5566 5559 5563 5576 5582 5584 5599 5601 5619 5616 5640 5625 5614 5606 5605 5597 5591 5587 5580 5573 5565 5558 5552 5546 5541 5536 5530 5524 5522 5517 5510 5505 5502 5500 5499 5498 5497 5496 5495 5493
5534 5531 5531 5543 5533 5537 5534 5574 5581 5588 5596 5607 5600 5634 5613 5608 5607 5605 5597 5592 5583 5576 5568 5560 5550 5543 5537 5531 5526 5521 5515 5509 5503 5497 5492 5488 5486 5486 5484 5482 5481 5479 5477 5476
5510 5518 5520 5524 5514 5521 5579 5576 5592 5587 5598 5600 5607 5615 5605 5605 5604 5598 5593 5586 5576 5567 5557 5546 5540 5531 5523 5516 5510 5503 5499 5491 5486 5481 5478 5475 5473 5470 5468 5466 5464 5462 5459 5456
5520 5521 5508 5518 5512 5547 5569 5554 5564 5570 5590 5599 5605 5603 5594 5592 5581 5579 5579 5571 5563 5553 5542 5534 5527 5517 5508 5502 5495 5487 5479 5477 5473 5468 5465 5461 5456 5453 5450 5448 5446 5443 5440 5438
5487 5506 5517 5498 5519 5531 5573 5559 5557 5560 5569 5591 5587 5586 5578 5570 5560 5580 5567 5557 5545 5535 5525 5516 5507 5500 5493 5484 5476 5471 5466 5463 5458 5452 5447 5444 5441 5438 5434 5432 5428 5427 5424 5424
5488 5487 5503 5498 5513 5534 5537 5531 5539 5540 5577 5554 5580 5582 5569 5567 5579 5575 5550 5537 5531 5523 5511 5502 5493 5484 5474 5465 5460 5456 5452 5446 5439 5434 5431 5427 5424 5421 5418 5416 5412 5410 5407 5406
5494 5496 5499 5496 5506 5529 5522 5517 5541 5549 5532 5537 5547 5556 5551 5542 5538 5537 5535 5523 5514 5506 5494 5486 5473 5463 5455 5449 5446 5442 5438 5429 5424 5419 5415 5410 5408 5405 5401 5399 5396 5393 5390 5389
5483 5502 5499 5504 5524 5516 5516 5519 5522 5521 5521 5518 5528 5528 5528 5521 5519 5517 5511 5503 5494 5486 5474 5464 5457 5447 5438 5432 5431 5428 5418 5411 5406 5400 5396 5395 5391 5386 5382 5380 5379 5376 5373 5371
5459 5463 5481 5488 5507 5504 5499 5498 5495 5498 5504 5505 5507 5508 5505 5503 5498 5491 5484 5476 5467 5457 5450 5442 5437 5430 5422 5415 5410 5404 5398 5391 5385 5382 5379 5376 5374 5371 5367 5364 5361 5359 5355 5353
5456 5452 5460 5466 5469 5477 5483 5485 5485 5478 5480 5484 5487 5489 5491 5484 5474 5471 5462 5452 5444 5435 5427 5425 5420 5413 5403 5396 5390 5382 5376 5372 5369 5365 5363 5361 5358 5355 5352 5349 5345 5342 5336 5328
5443 5463 5468 5488 5479 5482 5483 5474 5467 5467 5465 5464 5466 5464 5464 5466 5461 5451 5440 5433 5425 5417 5410 5403 5397 5392 5383 5374 5369 5364 5357 5354 5350 5348 5347 5343 5335 5335 5334 5332 5334 5325 5321 5315